Location: Newark
(14.9306°N, 3.4333°E)
Time: 22:15:23
(UTC+00:00)

First-Move - Pass Details

Date: 16 December 2019
Orbit: 577 x 669 km, 97.6° (Epoch: 28 January)

Event Time Altitude Azimuth Distance (km) Brightness Sun altitude
Rises 05:05:12 0° 32° (NNE) 2,786 ? -14.0°
Reaches altitude 10° 05:07:44 10° 47° (NE) 1,883 ? -13.5°
Maximum altitude 05:10:56 22° 99° (E) 1,265 ? -12.7°
Drops below altitude 10° 05:14:08 10° 151° (SSE) 1,883 ? -12.0°
Sets 05:16:38 0° 166° (SSE) 2,787 ? -11.4°
